WIF5H ENBR-ENVA

Flight info

Callsign WIF5H
Flight time 1h 8m
Altitude 23000
Route INTUM DCT NELSU
Aircraft DH8D/M-SDE2E3FGRY/H

Departure

Time 2026-04-29 14:45
Airport Bergen Airport, Flesland (ENBR)

Arrival

Time 2026-04-29 15:53
Airport Trondheim Airport, Værnes (ENVA)
Time Latitude Longitude Altitude Speed Heading
2026-04-29 14:05 60.28992 5.22726 177 ft 0 kts 180°
2026-04-29 14:35 60.28997 5.22726 177 ft 2 kts 180°
2026-04-29 14:35 60.29012 5.22726 177 ft 2 kts 180°
2026-04-29 14:36 60.29027 5.22727 177 ft 2 kts 186°
2026-04-29 14:36 60.29039 5.22741 177 ft 2 kts 237°
2026-04-29 14:36 60.29043 5.22766 177 ft 0 kts 279°
2026-04-29 14:36 60.29042 5.22773 178 ft 0 kts 280°
2026-04-29 14:40 60.29042 5.22767 177 ft 2 kts 280°
2026-04-29 14:41 60.29048 5.22690 176 ft 6 kts 270°
2026-04-29 14:41 60.29039 5.22561 173 ft 10 kts 261°
2026-04-29 14:41 60.29021 5.22417 170 ft 10 kts 236°
2026-04-29 14:41 60.28955 5.22383 170 ft 10 kts 192°
2026-04-29 14:42 60.28898 5.22292 168 ft 11 kts 187°
2026-04-29 14:42 60.28816 5.22312 168 ft 12 kts 170°
2026-04-29 14:42 60.28729 5.22343 167 ft 13 kts 170°
2026-04-29 14:42 60.28636 5.22373 165 ft 15 kts 171°
2026-04-29 14:43 60.28511 5.22416 161 ft 18 kts 170°
2026-04-29 14:43 60.28389 5.22457 157 ft 15 kts 170°
2026-04-29 14:43 60.28297 5.22461 154 ft 12 kts 214°
2026-04-29 14:43 60.28277 5.22290 147 ft 14 kts 279°
2026-04-29 14:44 60.28301 5.22169 144 ft 4 kts 336°
2026-04-29 14:44 60.28313 5.22160 144 ft 0 kts 347°
2026-04-29 14:44 60.28393 5.22128 149 ft 44 kts 351°
2026-04-29 14:44 60.28999 5.21933 162 ft 125 kts 350°
2026-04-29 14:45 60.30000 5.21638 322 ft 158 kts 351°
2026-04-29 14:45 60.31122 5.21375 958 ft 166 kts 351°
2026-04-29 14:45 60.32265 5.21016 1702 ft 170 kts 350°
2026-04-29 14:45 60.33420 5.20615 2433 ft 167 kts 351°
2026-04-29 14:46 60.34545 5.20227 3118 ft 164 kts 351°
2026-04-29 14:46 60.35636 5.19849 3822 ft 158 kts 351°
2026-04-29 14:46 60.36693 5.19486 4432 ft 158 kts 351°
2026-04-29 14:46 60.37871 5.19087 4683 ft 180 kts 350°
2026-04-29 14:47 60.39111 5.18663 5243 ft 184 kts 350°
2026-04-29 14:47 60.40369 5.18229 5822 ft 187 kts 349°
2026-04-29 14:47 60.41666 5.17783 6461 ft 188 kts 349°
2026-04-29 14:47 60.42960 5.17340 7057 ft 190 kts 349°
2026-04-29 14:48 60.44260 5.16896 7659 ft 192 kts 349°
2026-04-29 14:48 60.45566 5.16450 8256 ft 193 kts 349°
2026-04-29 14:48 60.46909 5.15993 8852 ft 195 kts 350°
2026-04-29 14:48 60.48248 5.15539 9441 ft 197 kts 350°
2026-04-29 14:49 60.49594 5.15710 9956 ft 203 kts 21°
2026-04-29 14:49 60.50794 5.17255 10533 ft 206 kts 33°
2026-04-29 14:49 60.51973 5.18972 11124 ft 209 kts 32°
2026-04-29 14:49 60.53175 5.20717 11540 ft 219 kts 32°
2026-04-29 14:50 60.54448 5.22560 11916 ft 230 kts 32°
2026-04-29 14:50 60.55786 5.24496 12322 ft 241 kts 32°
2026-04-29 14:50 60.57177 5.26505 12713 ft 251 kts 32°
2026-04-29 14:50 60.58630 5.28607 13106 ft 260 kts 32°
2026-04-29 14:51 60.60119 5.30776 13503 ft 268 kts 32°
2026-04-29 14:51 60.61660 5.33016 13866 ft 275 kts 32°
2026-04-29 14:51 60.63252 5.35317 14250 ft 280 kts 32°
2026-04-29 14:51 60.64842 5.37620 14647 ft 284 kts 32°
2026-04-29 14:52 60.66466 5.39977 15033 ft 287 kts 32°
2026-04-29 14:52 60.68098 5.42348 15416 ft 290 kts 32°
2026-04-29 14:52 60.69741 5.44740 15776 ft 292 kts 32°
2026-04-29 14:52 60.71405 5.47164 16159 ft 294 kts 32°
2026-04-29 14:53 60.73064 5.49586 16533 ft 295 kts 32°
2026-04-29 14:53 60.74742 5.52039 16917 ft 296 kts 32°
2026-04-29 14:53 60.76407 5.54476 17293 ft 297 kts 32°
2026-04-29 14:53 60.78094 5.56949 17656 ft 297 kts 32°
2026-04-29 14:54 60.79766 5.59403 18029 ft 297 kts 32°
2026-04-29 14:54 60.81437 5.61859 18414 ft 297 kts 32°
2026-04-29 14:54 60.83121 5.64337 18745 ft 297 kts 32°
2026-04-29 14:54 60.84798 5.66808 18988 ft 300 kts 32°
2026-04-29 14:55 60.86502 5.69321 19247 ft 302 kts 32°
2026-04-29 14:55 60.88197 5.71826 19505 ft 304 kts 32°
2026-04-29 14:55 60.89937 5.74399 19750 ft 305 kts 32°
2026-04-29 14:55 60.91648 5.76933 20001 ft 306 kts 32°
2026-04-29 14:56 60.93392 5.79521 20260 ft 307 kts 32°
2026-04-29 14:56 60.95110 5.82073 20511 ft 307 kts 33°
2026-04-29 14:56 60.96841 5.84648 20766 ft 305 kts 32°
2026-04-29 14:56 60.98529 5.87241 21017 ft 304 kts 34°
2026-04-29 14:57 61.00203 5.89955 21269 ft 303 kts 34°
2026-04-29 14:57 61.01840 5.92622 21519 ft 302 kts 34°
2026-04-29 14:57 61.03503 5.95330 21774 ft 300 kts 34°
2026-04-29 14:57 61.05136 5.97987 22024 ft 299 kts 34°
2026-04-29 14:58 61.06759 6.00629 22278 ft 298 kts 34°
2026-04-29 14:58 61.08396 6.03296 22516 ft 297 kts 34°
2026-04-29 14:58 61.10027 6.05952 22657 ft 299 kts 34°
2026-04-29 14:58 61.11669 6.08628 22791 ft 301 kts 34°
2026-04-29 14:59 61.13316 6.11315 22922 ft 303 kts 34°
2026-04-29 14:59 61.14972 6.14021 23053 ft 304 kts 34°
2026-04-29 14:59 61.16649 6.16765 23185 ft 306 kts 34°
2026-04-29 14:59 61.18320 6.19504 23315 ft 306 kts 34°
2026-04-29 15:00 61.19986 6.22236 23382 ft 310 kts 34°
2026-04-29 15:00 61.21694 6.25038 23397 ft 312 kts 34°
2026-04-29 15:00 61.23413 6.27865 23407 ft 315 kts 34°
2026-04-29 15:00 61.25124 6.30684 23412 ft 317 kts 34°
2026-04-29 15:01 61.26855 6.33539 23414 ft 319 kts 34°
2026-04-29 15:01 61.28628 6.36467 23409 ft 321 kts 33°
2026-04-29 15:01 61.30374 6.39356 23401 ft 323 kts 33°
2026-04-29 15:01 61.32143 6.42286 23398 ft 325 kts 33°
2026-04-29 15:02 61.33897 6.45198 23392 ft 326 kts 33°
2026-04-29 15:02 61.35675 6.48154 23381 ft 327 kts 33°
2026-04-29 15:02 61.37445 6.51100 23379 ft 328 kts 33°
2026-04-29 15:02 61.39246 6.54101 23384 ft 328 kts 33°
2026-04-29 15:03 61.41017 6.57059 23385 ft 328 kts 33°
2026-04-29 15:03 61.42792 6.60027 23392 ft 328 kts 33°
2026-04-29 15:03 61.44578 6.63017 23393 ft 329 kts 33°
2026-04-29 15:03 61.46361 6.66008 23390 ft 329 kts 34°
2026-04-29 15:04 61.48149 6.69009 23389 ft 329 kts 34°
2026-04-29 15:04 61.49932 6.72009 23398 ft 329 kts 34°
2026-04-29 15:04 61.51711 6.75007 23405 ft 329 kts 34°
2026-04-29 15:04 61.53510 6.78042 23412 ft 329 kts 34°
2026-04-29 15:05 61.55275 6.81024 23414 ft 328 kts 34°
2026-04-29 15:05 61.57061 6.84046 23416 ft 328 kts 34°
2026-04-29 15:05 61.58833 6.87050 23418 ft 329 kts 34°
2026-04-29 15:05 61.60621 6.90085 23418 ft 329 kts 34°
2026-04-29 15:06 61.62386 6.93084 23418 ft 328 kts 34°
2026-04-29 15:06 61.64172 6.96124 23418 ft 329 kts 34°
2026-04-29 15:06 61.65960 6.99174 23409 ft 329 kts 33°
2026-04-29 15:06 61.67734 7.02204 23400 ft 329 kts 33°
2026-04-29 15:07 61.69498 7.05220 23385 ft 329 kts 34°
2026-04-29 15:07 61.71290 7.08290 23369 ft 329 kts 33°
2026-04-29 15:07 61.73082 7.11366 23364 ft 329 kts 33°
2026-04-29 15:07 61.74852 7.14406 23369 ft 328 kts 33°
2026-04-29 15:08 61.76621 7.17451 23373 ft 328 kts 33°
2026-04-29 15:08 61.78388 7.20496 23376 ft 327 kts 33°
2026-04-29 15:08 61.80143 7.23526 23375 ft 327 kts 33°
2026-04-29 15:08 61.81914 7.26588 23379 ft 327 kts 33°
2026-04-29 15:09 61.83684 7.29652 23381 ft 327 kts 33°
2026-04-29 15:09 61.85441 7.32698 23381 ft 327 kts 33°
2026-04-29 15:09 61.87206 7.35764 23381 ft 327 kts 33°
2026-04-29 15:09 61.88954 7.38803 23378 ft 327 kts 33°
2026-04-29 15:10 61.90720 7.41880 23381 ft 327 kts 33°
2026-04-29 15:10 61.92484 7.44959 23381 ft 327 kts 33°
2026-04-29 15:10 61.94226 7.48003 23379 ft 327 kts 33°
2026-04-29 15:10 61.95998 7.51103 23380 ft 327 kts 33°
2026-04-29 15:11 61.97734 7.54148 23383 ft 327 kts 33°
2026-04-29 15:11 61.99506 7.57258 23385 ft 327 kts 33°
2026-04-29 15:11 62.01246 7.60316 23383 ft 327 kts 33°
2026-04-29 15:11 62.03001 7.63407 23384 ft 327 kts 33°
2026-04-29 15:12 62.04760 7.66510 23387 ft 327 kts 34°
2026-04-29 15:12 62.05938 7.68590 23380 ft 327 kts 34°
2026-04-29 15:12 62.08260 7.72697 23379 ft 327 kts 34°
2026-04-29 15:12 62.10016 7.75809 23378 ft 327 kts 34°
2026-04-29 15:13 62.11760 7.78905 23384 ft 327 kts 34°
2026-04-29 15:13 62.13518 7.82029 23388 ft 327 kts 34°
2026-04-29 15:13 62.15255 7.85120 23387 ft 327 kts 34°
2026-04-29 15:13 62.17002 7.88236 23388 ft 327 kts 34°
2026-04-29 15:14 62.18764 7.91382 23386 ft 328 kts 34°
2026-04-29 15:14 62.20506 7.94497 23380 ft 328 kts 34°
2026-04-29 15:14 62.22248 7.97617 23376 ft 328 kts 34°
2026-04-29 15:14 62.24010 8.00779 23382 ft 328 kts 34°
2026-04-29 15:15 62.25772 8.03946 23384 ft 328 kts 34°
2026-04-29 15:15 62.27501 8.07057 23380 ft 328 kts 34°
2026-04-29 15:15 62.29267 8.10241 23366 ft 329 kts 34°
2026-04-29 15:15 62.31010 8.13387 23361 ft 329 kts 34°
2026-04-29 15:16 62.32760 8.16552 23364 ft 329 kts 34°
2026-04-29 15:16 62.34516 8.19733 23357 ft 329 kts 34°
2026-04-29 15:16 62.36280 8.22932 23356 ft 330 kts 34°
2026-04-29 15:16 62.38042 8.26133 23362 ft 329 kts 34°
2026-04-29 15:17 62.39782 8.29301 23357 ft 330 kts 33°
2026-04-29 15:17 62.41545 8.32514 23348 ft 330 kts 34°
2026-04-29 15:17 62.43283 8.35688 23351 ft 329 kts 34°
2026-04-29 15:17 62.45037 8.38894 23345 ft 329 kts 33°
2026-04-29 15:18 62.46788 8.42101 23346 ft 329 kts 33°
2026-04-29 15:18 62.48529 8.45296 23348 ft 329 kts 33°
2026-04-29 15:18 62.50277 8.48507 23352 ft 329 kts 33°
2026-04-29 15:18 62.52017 8.51708 23356 ft 329 kts 33°
2026-04-29 15:19 62.53752 8.54906 23347 ft 329 kts 33°
2026-04-29 15:19 62.55515 8.58159 23347 ft 329 kts 33°
2026-04-29 15:19 62.57246 8.61360 23335 ft 330 kts 33°
2026-04-29 15:19 62.58986 8.64583 23324 ft 328 kts 33°
2026-04-29 15:20 62.60735 8.67829 23287 ft 327 kts 34°
2026-04-29 15:20 62.62455 8.71023 22991 ft 324 kts 34°
2026-04-29 15:20 62.64152 8.74176 22639 ft 323 kts 34°
2026-04-29 15:20 62.65880 8.77390 22271 ft 322 kts 34°
2026-04-29 15:21 62.67576 8.80552 21900 ft 322 kts 34°
2026-04-29 15:21 62.69265 8.83707 21522 ft 321 kts 34°
2026-04-29 15:21 62.70961 8.86881 21162 ft 319 kts 34°
2026-04-29 15:21 62.72634 8.90016 20783 ft 318 kts 34°
2026-04-29 15:22 62.74300 8.93145 20414 ft 317 kts 34°
2026-04-29 15:22 62.75980 8.96306 20045 ft 316 kts 33°
2026-04-29 15:22 62.77634 8.99422 19682 ft 315 kts 33°
2026-04-29 15:22 62.79283 9.02534 19309 ft 314 kts 33°
2026-04-29 15:23 62.80944 9.05674 18936 ft 312 kts 33°
2026-04-29 15:23 62.82562 9.08736 18580 ft 310 kts 33°
2026-04-29 15:23 62.84183 9.11809 18229 ft 308 kts 33°
2026-04-29 15:23 62.85798 9.14877 17869 ft 306 kts 33°
2026-04-29 15:24 62.87399 9.17920 17513 ft 304 kts 33°
2026-04-29 15:24 62.89007 9.20983 17162 ft 302 kts 33°
2026-04-29 15:24 62.90591 9.24002 16814 ft 301 kts 33°
2026-04-29 15:24 62.92166 9.27010 16470 ft 299 kts 33°
2026-04-29 15:25 62.93722 9.29987 16121 ft 298 kts 33°
2026-04-29 15:25 62.95283 9.32976 15788 ft 296 kts 33°
2026-04-29 15:25 62.96827 9.35938 15447 ft 295 kts 33°
2026-04-29 15:25 62.98367 9.38896 15104 ft 295 kts 32°
2026-04-29 15:26 62.99917 9.41878 14752 ft 293 kts 32°
2026-04-29 15:26 63.01452 9.44836 14421 ft 292 kts 32°
2026-04-29 15:26 63.02971 9.47766 14082 ft 291 kts 32°
2026-04-29 15:26 63.04488 9.50697 13742 ft 290 kts 32°
2026-04-29 15:27 63.06010 9.53644 13407 ft 289 kts 32°
2026-04-29 15:27 63.07505 9.56541 13080 ft 288 kts 32°
2026-04-29 15:27 63.09018 9.59475 12741 ft 287 kts 32°
2026-04-29 15:27 63.10441 9.62570 12450 ft 293 kts 44°
2026-04-29 15:28 63.11221 9.66831 12225 ft 305 kts 72°
2026-04-29 15:28 63.11455 9.69912 12185 ft 308 kts 74°
2026-04-29 15:28 63.11900 9.76243 12027 ft 312 kts 75°
2026-04-29 15:28 63.12231 9.80991 11906 ft 313 kts 74°
2026-04-29 15:29 63.12563 9.85732 11790 ft 311 kts 74°
2026-04-29 15:29 63.13219 9.95097 11553 ft 305 kts 74°
2026-04-29 15:30 63.13863 10.04269 11306 ft 301 kts 74°
2026-04-29 15:30 63.14187 10.08892 11188 ft 299 kts 74°
2026-04-29 15:30 63.14505 10.13444 11073 ft 297 kts 73°
2026-04-29 15:30 63.14821 10.17978 10961 ft 296 kts 73°
2026-04-29 15:31 63.15134 10.22486 10862 ft 295 kts 73°
2026-04-29 15:31 63.15443 10.26951 10746 ft 294 kts 74°
2026-04-29 15:31 63.15752 10.31448 10643 ft 293 kts 73°
2026-04-29 15:31 63.16055 10.35862 10522 ft 293 kts 73°
2026-04-29 15:32 63.16362 10.40371 10411 ft 292 kts 73°
2026-04-29 15:32 63.16664 10.44816 10300 ft 291 kts 73°
2026-04-29 15:32 63.16966 10.49282 10193 ft 291 kts 73°
2026-04-29 15:32 63.17263 10.53694 10069 ft 291 kts 73°
2026-04-29 15:33 63.17558 10.58107 9960 ft 290 kts 73°
2026-04-29 15:33 63.17852 10.62520 9850 ft 289 kts 73°
2026-04-29 15:33 63.18147 10.66955 9730 ft 289 kts 75°
2026-04-29 15:33 63.18436 10.71339 9623 ft 288 kts 75°
2026-04-29 15:34 63.18724 10.75728 9507 ft 288 kts 75°
2026-04-29 15:34 63.19014 10.80175 9389 ft 287 kts 75°
2026-04-29 15:34 63.19298 10.84538 9277 ft 286 kts 75°
2026-04-29 15:34 63.19581 10.88900 9007 ft 293 kts 75°
2026-04-29 15:35 63.19876 10.93429 8727 ft 296 kts 75°
2026-04-29 15:35 63.20166 10.97974 8551 ft 296 kts 75°
2026-04-29 15:35 63.20451 11.02474 8422 ft 293 kts 75°
2026-04-29 15:35 63.20732 11.06922 8301 ft 291 kts 76°
2026-04-29 15:36 63.21010 11.11345 8182 ft 289 kts 75°
2026-04-29 15:36 63.21287 11.15774 8069 ft 287 kts 76°
2026-04-29 15:36 63.21559 11.20144 7942 ft 282 kts 76°
2026-04-29 15:36 63.21823 11.24403 7829 ft 278 kts 75°
2026-04-29 15:37 63.22084 11.28622 7714 ft 274 kts 75°
2026-04-29 15:37 63.22342 11.32814 7599 ft 271 kts 75°
2026-04-29 15:37 63.22593 11.36920 7491 ft 268 kts 76°
2026-04-29 15:37 63.22785 11.41044 7395 ft 268 kts 84°
2026-04-29 15:38 63.22592 11.45162 7323 ft 268 kts 94°
2026-04-29 15:38 63.22299 11.49210 7255 ft 264 kts 94°
2026-04-29 15:38 63.22006 11.53239 7198 ft 264 kts 94°
2026-04-29 15:38 63.21877 11.57256 7123 ft 257 kts 76°
2026-04-29 15:39 63.22283 11.61039 7081 ft 252 kts 66°
2026-04-29 15:39 63.22773 11.64777 7025 ft 253 kts 65°
2026-04-29 15:39 63.23263 11.68507 6967 ft 253 kts 67°
2026-04-29 15:39 63.23860 11.72138 6893 ft 245 kts 51°
2026-04-29 15:40 63.24884 11.75070 6856 ft 236 kts 40°
2026-04-29 15:40 63.25972 11.77813 6801 ft 237 kts 39°
2026-04-29 15:40 63.27057 11.80547 6747 ft 237 kts 40°
2026-04-29 15:40 63.28160 11.83270 6688 ft 235 kts 36°
2026-04-29 15:41 63.29490 11.85182 6641 ft 221 kts 16°
2026-04-29 15:41 63.30900 11.86566 6587 ft 221 kts 15°
2026-04-29 15:41 63.32305 11.87913 6511 ft 221 kts 13°
2026-04-29 15:41 63.33758 11.88226 6409 ft 202 kts 338°
2026-04-29 15:42 63.34784 11.86332 6374 ft 193 kts 299°
2026-04-29 15:42 63.35269 11.83497 6335 ft 197 kts 290°
2026-04-29 15:42 63.35658 11.80554 6293 ft 200 kts 288°
2026-04-29 15:42 63.36016 11.77531 6251 ft 203 kts 287°
2026-04-29 15:43 63.36359 11.74422 6203 ft 206 kts 286°
2026-04-29 15:43 63.36621 11.71275 6156 ft 209 kts 281°
2026-04-29 15:43 63.36793 11.68049 6108 ft 210 kts 281°
2026-04-29 15:43 63.36968 11.64773 6042 ft 212 kts 281°
2026-04-29 15:44 63.37141 11.61480 5846 ft 216 kts 280°
2026-04-29 15:44 63.37586 11.58299 5583 ft 218 kts 303°
2026-04-29 15:44 63.38703 11.56063 5440 ft 213 kts 326°
2026-04-29 15:44 63.39952 11.54415 5370 ft 205 kts 326°
2026-04-29 15:45 63.41164 11.52841 5176 ft 199 kts 326°
2026-04-29 15:45 63.42343 11.51322 4910 ft 192 kts 326°
2026-04-29 15:45 63.43492 11.49856 4701 ft 183 kts 326°
2026-04-29 15:45 63.44558 11.48520 4627 ft 168 kts 326°
2026-04-29 15:46 63.45278 11.46724 4619 ft 154 kts 287°
2026-04-29 15:46 63.45363 11.44307 4626 ft 154 kts 278°
2026-04-29 15:46 63.45464 11.41958 4626 ft 152 kts 281°
2026-04-29 15:46 63.45536 11.39624 4587 ft 147 kts 277°
2026-04-29 15:47 63.45562 11.37384 4443 ft 139 kts 276°
2026-04-29 15:47 63.45581 11.35282 4182 ft 131 kts 276°
2026-04-29 15:47 63.45595 11.33310 3894 ft 123 kts 276°
2026-04-29 15:47 63.45610 11.31434 3737 ft 117 kts 276°
2026-04-29 15:48 63.45624 11.29640 3548 ft 113 kts 276°
2026-04-29 15:48 63.45636 11.27913 3362 ft 110 kts 276°
2026-04-29 15:48 63.45650 11.26149 3191 ft 113 kts 275°
2026-04-29 15:48 63.45661 11.24414 3060 ft 110 kts 275°
2026-04-29 15:49 63.45667 11.22707 2935 ft 112 kts 275°
2026-04-29 15:49 63.45678 11.20937 2801 ft 115 kts 275°
2026-04-29 15:49 63.45684 11.19110 2624 ft 116 kts 274°
2026-04-29 15:49 63.45683 11.17346 2333 ft 113 kts 275°
2026-04-29 15:50 63.45692 11.15584 2177 ft 112 kts 275°
2026-04-29 15:50 63.45705 11.13832 2069 ft 114 kts 275°
2026-04-29 15:50 63.45713 11.12017 1902 ft 120 kts 274°
2026-04-29 15:50 63.45717 11.10150 1689 ft 117 kts 273°
2026-04-29 15:51 63.45716 11.08341 1459 ft 112 kts 273°
2026-04-29 15:51 63.45726 11.06603 1315 ft 115 kts 274°
2026-04-29 15:51 63.45742 11.04727 1183 ft 125 kts 273°
2026-04-29 15:51 63.45738 11.02769 947 ft 123 kts 271°
2026-04-29 15:52 63.45738 11.00904 732 ft 119 kts 272°
2026-04-29 15:52 63.45745 10.99027 567 ft 118 kts 272°
2026-04-29 15:52 63.45751 10.97170 396 ft 119 kts 272°
2026-04-29 15:52 63.45755 10.95320 208 ft 119 kts 271°
2026-04-29 15:53 63.45758 10.93472 39 ft 112 kts 270°
2026-04-29 15:53 63.45760 10.91995 12 ft 62 kts 271°
2026-04-29 15:53 63.45764 10.91315 8 ft 34 kts 270°
2026-04-29 15:53 63.45763 10.90907 6 ft 21 kts 270°
2026-04-29 15:54 63.45747 10.90556 4 ft 21 kts 246°
2026-04-29 15:54 63.45682 10.90391 4 ft 8 kts 212°
2026-04-29 15:54 63.45628 10.90373 4 ft 7 kts 164°
2026-04-29 15:54 63.45600 10.90504 4 ft 11 kts 92°
2026-04-29 15:55 63.45599 10.90694 4 ft 13 kts 89°
2026-04-29 15:55 63.45600 10.90909 6 ft 13 kts 90°
2026-04-29 15:55 63.45600 10.91069 8 ft 8 kts 89°
2026-04-29 15:55 63.45567 10.91143 8 ft 7 kts 175°
2026-04-29 15:56 63.45516 10.91143 8 ft 6 kts 181°
2026-04-29 15:56 63.45495 10.91194 8 ft 5 kts 98°
2026-04-29 15:56 63.45494 10.91250 8 ft 1 kts 90°
2026-04-29 15:56 63.45494 10.91252 8 ft 0 kts 90°